User: anonymous   Login
Location: Fensholt
(55.9856°N, 10.0808°E)
Time: 17:25:46
(UTC+00:00)
Language:

ERS-2 - Orbit

View from above orbital plane
View from above orbital plane
View from above satellite
View from above satellite

Ground track
Ground track

The orbit data is extracted from the following two-line orbital elements,

1 23560U 95021A   20227.49861604 +.00000504 +00000-0 +25076-4 0  9997
2 23560 098.5478 028.9615 0003054 357.1885 002.9330 15.23247736350958
Epoch (UTC): 14 August 2020 11:58:00
Eccentricity: 0.0003054
inclination: 98.5478°
perigee height: 494 km
apogee height: 498 km
right ascension of ascending node: 28.9615°
argument of perigee: 357.1885°
revolutions per day: 15.23247736
mean anomaly at epoch: 2.9330°
orbit number at epoch: 35095

The dashed part of the orbit path shows where the satellite is in the earth's shadow,  

DLR